,,Stat5,,Stat1,,Stat2,,Stat3,,Stat4,,Wind1,,Wind1,
time,status,PA1M_AVG,status,PR1M_SUM,status,RH1M_AVG,status,SR1M_AVG,status,TA1M_AVG,status,W1dAve1m,status,W1sAve1m,
2000-05-29, 00:00:01,VALID,917.316,VALID,0,VALID,100,VALID,0,VALID,20.607,VALID,111,VALID,0,
2000-05-29, 00:01:01,VALID,917.316,VALID,0,VALID,100,VALID,0,VALID,20.6167,VALID,92,VALID,0,
2000-05-29, 00:02:00,VALID,917.315,VALID,0,VALID,100,VALID,-0.0339617,VALID,20.6041,VALID,87,VALID,0,
2000-05-29, 00:03:01,VALID,917.321,VALID,0,VALID,100,VALID,-0.0339617,VALID,20.5777,VALID,92,VALID,0,
2000-05-29, 00:04:00,VALID,917.313,VALID,0,VALID,100,VALID,-0.0169808,VALID,20.5685,VALID,88,VALID,0.369088,
2000-05-29, 00:05:00,VALID,917.304,VALID,0,VALID,100,VALID,-0.0169808,VALID,20.5556,VALID,90,VALID,0.595588,
2000-05-29, 00:06:00,VALID,917.294,VALID,0,VALID,100,VALID,0,VALID,20.536,VALID,77,VALID,0.068051,
2000-05-29, 00:07:00,VALID,917.283,VALID,0,VALID,100,VALID,-0.0169808,VALID,20.5265,VALID,67,VALID,0,
2000-05-29, 00:08:01,VALID,917.265,VALID,0,VALID,100,VALID,-0.0169808,VALID,20.5233,VALID,69,VALID,0,
2000-05-29, 00:09:00,VALID,917.266,VALID,0,VALID,100,VALID,0.0849042,VALID,20.5155,VALID,89,VALID,0,
2000-05-29, 00:10:00,VALID,917.267,VALID,0,VALID,100,VALID,0.0509425,VALID,20.5158,VALID,89,VALID,0,
2000-05-29, 00:11:01,VALID,917.284,VALID,0,VALID,100,VALID,0.101885,VALID,20.5051,VALID,89,VALID,0,
2000-05-29, 00:12:00,VALID,917.3,VALID,0,VALID,100,VALID,0.0849042,VALID,20.5083,VALID,93,VALID,0,
2000-05-29, 00:13:01,VALID,917.315,VALID,0,VALID,100,VALID,0.101885,VALID,20.5282,VALID,98,VALID,0,
2000-05-29, 00:14:01,VALID,917.309,VALID,0,VALID,100,VALID,0.118866,VALID,20.5309,VALID,98,VALID,0,
2000-05-29, 00:15:01,VALID,917.303,VALID,0,VALID,100,VALID,0.101885,VALID,20.5274,VALID,98,VALID,0,
2000-05-29, 00:16:01,VALID,917.297,VALID,0,VALID,100,VALID,0.118866,VALID,20.518,VALID,96,VALID,0,
2000-05-29, 00:17:01,VALID,917.291,VALID,0,VALID,100,VALID,0.101885,VALID,20.5056,VALID,88,VALID,0.446752,
2000-05-29, 00:18:01,VALID,917.288,VALID,0,VALID,100,VALID,0.101885,VALID,20.5088,VALID,80,VALID,0.487048,
2000-05-29, 00:19:01,VALID,917.288,VALID,0,VALID,100,VALID,0.101885,VALID,20.486,VALID,68,VALID,0.555304,
2000-05-29, 00:20:01,VALID,917.29,VALID,0,VALID,100,VALID,0.101885,VALID,20.4929,VALID,69,VALID,0.224918,
2000-05-29, 00:21:01,VALID,917.303,VALID,0,VALID,100,VALID,0.118866,VALID,20.4795,VALID,83,VALID,0.53145,
2000-05-29, 00:22:01,VALID,917.305,VALID,0,VALID,100,VALID,0.101885,VALID,20.5018,VALID,83,VALID,0.353125,
2000-05-29, 00:23:01,VALID,917.303,VALID,0,VALID,100,VALID,0.101885,VALID,20.5121,VALID,83,VALID,0,
2000-05-29, 00:24:01,VALID,917.299,VALID,0,VALID,100,VALID,0,VALID,20.5201,VALID,75,VALID,0,
2000-05-29, 00:25:01,VALID,917.297,VALID,0,VALID,100,VALID,-0.0339617,VALID,20.5171,VALID,66,VALID,0,
2000-05-29, 00:26:01,VALID,917.292,VALID,0,VALID,100,VALID,-0.0169808,VALID,20.5238,VALID,65,VALID,0,
2000-05-29, 00:27:01,VALID,917.276,VALID,0,VALID,100,VALID,0,VALID,20.5238,VALID,71,VALID,0,
2000-05-29, 00:28:01,VALID,917.264,VALID,0,VALID,100,VALID,-0.0169808,VALID,20.5236,VALID,78,VALID,0,
2000-05-29, 00:29:01,VALID,917.262,VALID,0,VALID,100,VALID,0,VALID,20.5198,VALID,83,VALID,0,
2000-05-29, 00:30:01,VALID,917.251,VALID,0,VALID,100,VALID,0,VALID,20.5101,VALID,79,VALID,0,
2000-05-29, 00:31:01,VALID,917.244,VALID,0,VALID,100,VALID,0.0169808,VALID,20.5037,VALID,78,VALID,0.115132,
2000-05-29, 00:32:01,VALID,917.233,VALID,0,VALID,100,VALID,-0.0169808,VALID,20.4977,VALID,77,VALID,0.567229,
2000-05-29, 00:33:01,VALID,917.208,VALID,0,VALID,100,VALID,0,VALID,20.4972,VALID,87,VALID,0.182566,
2000-05-29, 00:34:01,VALID,917.176,VALID,0,VALID,100,VALID,0,VALID,20.5104,VALID,82,VALID,0,
2000-05-29, 00:35:01,VALID,917.156,VALID,0,VALID,100,VALID,-0.0169808,VALID,20.494,VALID,75,VALID,0,
2000-05-29, 00:36:00,VALID,917.104,VALID,0,VALID,100,VALID,0.0169808,VALID,20.4907,VALID,75,VALID,0,
2000-05-29, 00:37:00,VALID,917.083,VALID,0,VALID,100,VALID,0,VALID,20.5034,VALID,75,VALID,0,
2000-05-29, 00:38:00,VALID,917.052,VALID,0,VALID,100,VALID,-0.0169808,VALID,20.494,VALID,75,VALID,0,
2000-05-29, 00:39:00,VALID,917.018,VALID,0,VALID,100,VALID,0,VALID,20.5174,VALID,75,VALID,0,
2000-05-29, 00:40:00,VALID,917.003,VALID,0,VALID,100,VALID,0,VALID,20.527,VALID,83,VALID,0,
2000-05-29, 00:41:00,VALID,916.977,VALID,0,VALID,100,VALID,0,VALID,20.537,VALID,96,VALID,0,
2000-05-29, 00:42:00,VALID,916.967,VALID,0,VALID,100,VALID,0,VALID,20.5499,VALID,94,VALID,0.260691,
2000-05-29, 00:43:00,VALID,916.959,VALID,0,VALID,100,VALID,-0.0339617,VALID,20.5233,VALID,96,VALID,1.0035,
2000-05-29, 00:44:00,VALID,916.97,VALID,0,VALID,100,VALID,0,VALID,20.5203,VALID,93,VALID,0.892887,
2000-05-29, 00:45:00,VALID,916.991,VALID,0,VALID,100,VALID,-0.0169808,VALID,20.5111,VALID,88,VALID,0.743389,
2000-05-29, 00:46:00,VALID,916.997,VALID,0,VALID,100,VALID,0,VALID,20.4848,VALID,92,VALID,0.766406,
2000-05-29, 00:47:00,VALID,917.014,VALID,0,VALID,100,VALID,0,VALID,20.4786,VALID,74,VALID,0.549342,
2000-05-29, 00:48:00,VALID,917.001,VALID,0,VALID,100,VALID,0,VALID,20.4689,VALID,79,VALID,0.657072,
2000-05-29, 00:49:00,VALID,916.996,VALID,0,VALID,100,VALID,-0.0169808,VALID,20.4791,VALID,79,VALID,0.80551,
2000-05-29, 00:50:00,VALID,916.978,VALID,0,VALID,100,VALID,-0.0339617,VALID,20.4788,VALID,72,VALID,0.793174,
2000-05-29, 00:51:00,VALID,916.962,VALID,0,VALID,100,VALID,0,VALID,20.4853,VALID,70,VALID,0.58676,
2000-05-29, 00:52:00,VALID,916.971,VALID,0,VALID,100,VALID,-0.0509425,VALID,20.4813,VALID,96,VALID,0.212993,
2000-05-29, 00:53:00,VALID,916.961,VALID,0,VALID,100,VALID,0,VALID,20.5007,VALID,98,VALID,0.479367,
2000-05-29, 00:54:00,VALID,916.966,VALID,0,VALID,100,VALID,-0.0169808,VALID,20.5136,VALID,110,VALID,0.459766,
2000-05-29, 00:55:00,VALID,916.968,VALID,0,VALID,100,VALID,-0.0339617,VALID,20.53,VALID,89,VALID,0.419408,
2000-05-29, 00:56:00,VALID,916.97,VALID,0,VALID,100,VALID,0,VALID,20.5497,VALID,105,VALID,0.49815,
2000-05-29, 00:57:00,VALID,916.958,VALID,0,VALID,100,VALID,-0.0169808,VALID,20.5688,VALID,101,VALID,0.591694,
2000-05-29, 00:58:00,VALID,916.935,VALID,0,VALID,100,VALID,0,VALID,20.575,VALID,101,VALID,0.110197,
2000-05-29, 00:59:00,VALID,916.894,VALID,0,VALID,100,VALID,-0.0169808,VALID,20.582,VALID,87,VALID,0.111842,
2000-05-29, 01:00:00,VALID,916.856,VALID,0,VALID,100,VALID,0,VALID,20.5688,VALID,53,VALID,0.202919,
2000-05-29, 01:01:00,VALID,916.823,VALID,0,VALID,100,VALID,-0.0169808,VALID,20.5857,VALID,70,VALID,0,
2000-05-29, 01:02:00,VALID,916.789,VALID,0,VALID,100,VALID,-0.0169808,VALID,20.5793,VALID,62,VALID,0,
2000-05-29, 01:03:00,VALID,916.766,VALID,0,VALID,100,VALID,0,VALID,20.5623,VALID,90,VALID,0,
2000-05-29, 01:04:00,VALID,916.765,VALID,0,VALID,100,VALID,-0.0169808,VALID,20.5718,VALID,101,VALID,0,
2000-05-29, 01:05:00,VALID,916.757,VALID,0,VALID,100,VALID,-0.0169808,VALID,20.5849,VALID,102,VALID,0,
2000-05-29, 01:06:00,VALID,916.779,VALID,0,VALID,100,VALID,-0.0169808,VALID,20.5725,VALID,87,VALID,0.491776,
2000-05-29, 01:07:00,VALID,916.77,VALID,0,VALID,100,VALID,0,VALID,20.5462,VALID,94,VALID,0.387747,
2000-05-29, 01:08:00,VALID,916.775,VALID,0,VALID,100,VALID,0,VALID,20.533,VALID,92,VALID,0.237253,
2000-05-29, 01:09:00,VALID,916.766,VALID,0,VALID,100,VALID,0,VALID,20.5268,VALID,88,VALID,0.219351,
2000-05-29, 01:10:00,VALID,916.746,VALID,0,VALID,100,VALID,0,VALID,20.5206,VALID,95,VALID,0,
2000-05-29, 01:11:00,VALID,916.733,VALID,0,VALID,100,VALID,0,VALID,20.5265,VALID,95,VALID,0,
2000-05-29, 01:12:00,VALID,916.72,VALID,0,VALID,100,VALID,0,VALID,20.5298,VALID,99,VALID,0,
2000-05-29, 01:13:00,VALID,916.704,VALID,0,VALID,100,VALID,0,VALID,20.5365,VALID,137,VALID,0.122122,
2000-05-29, 01:14:00,VALID,916.695,VALID,0,VALID,100,VALID,0,VALID,20.5144,VALID,104,VALID,0.797697,
2000-05-29, 01:15:00,VALID,916.698,VALID,0,VALID,100,VALID,0,VALID,20.5047,VALID,109,VALID,0.73972,
2000-05-29, 01:16:00,VALID,916.686,VALID,0,VALID,100,VALID,-0.0169808,VALID,20.4945,VALID,100,VALID,0.992804,
2000-05-29, 01:17:00,VALID,916.667,VALID,0,VALID,100,VALID,-0.0169808,VALID,20.5012,VALID,112,VALID,0.638529,
2000-05-29, 01:18:00,VALID,916.667,VALID,0,VALID,100,VALID,-0.0339617,VALID,20.488,VALID,106,VALID,0.642969,
2000-05-29, 01:19:00,VALID,916.666,VALID,0,VALID,100,VALID,-0.0169808,VALID,20.495,VALID,92,VALID,0.130551,
2000-05-29, 01:20:00,VALID,916.675,VALID,0,VALID,100,VALID,0,VALID,20.495,VALID,92,VALID,0,
2000-05-29, 01:21:00,VALID,916.698,VALID,0,VALID,100,VALID,-0.0169808,VALID,20.4918,VALID,92,VALID,0,
2000-05-29, 01:22:00,VALID,916.741,VALID,0,VALID,100,VALID,-0.0169808,VALID,20.4753,VALID,74,VALID,0,
2000-05-29, 01:23:00,VALID,916.781,VALID,0,VALID,100,VALID,-0.0169808,VALID,20.4624,VALID,67,VALID,0,
2000-05-29, 01:24:00,VALID,916.817,VALID,0,VALID,100,VALID,-0.0169808,VALID,20.453,VALID,59,VALID,0,
2000-05-29, 01:25:00,VALID,916.865,VALID,0,VALID,100,VALID,-0.0339617,VALID,20.4333,VALID,75,VALID,0,
2000-05-29, 01:26:00,VALID,916.881,VALID,0,VALID,100,VALID,-0.0169808,VALID,20.4562,VALID,86,VALID,0.675586,
2000-05-29, 01:27:00,VALID,916.911,VALID,0,VALID,100,VALID,0,VALID,20.4463,VALID,81,VALID,0.865337,
2000-05-29, 01:28:00,VALID,916.922,VALID,0,VALID,100,VALID,-0.0339617,VALID,20.4465,VALID,98,VALID,0.568051,
2000-05-29, 01:29:00,VALID,916.915,VALID,0,VALID,100,VALID,-0.0509425,VALID,20.443,VALID,73,VALID,0.520148,
2000-05-29, 01:30:00,VALID,916.913,VALID,0,VALID,100,VALID,-0.0169808,VALID,20.4366,VALID,54,VALID,0.514186,
2000-05-29, 01:31:00,VALID,916.908,VALID,0,VALID,100,VALID,-0.0339617,VALID,20.4237,VALID,89,VALID,0.363898,
2000-05-29, 01:32:00,VALID,916.888,VALID,0,VALID,100,VALID,0.0169808,VALID,20.4269,VALID,97,VALID,0.832442,
2000-05-29, 01:33:00,VALID,916.875,VALID,0,VALID,100,VALID,-0.0169808,VALID,20.4299,VALID,90,VALID,0.707332,
2000-05-29, 01:34:00,VALID,916.863,VALID,0,VALID,100,VALID,0,VALID,20.4306,VALID,96,VALID,0.554297,
2000-05-29, 01:35:00,VALID,916.874,VALID,0,VALID,100,VALID,0,VALID,20.4465,VALID,94,VALID,0.567229,
2000-05-29, 01:36:00,VALID,916.895,VALID,0,VALID,100,VALID,-0.0169808,VALID,20.4266,VALID,96,VALID,0.596423,
2000-05-29, 01:37:00,VALID,916.926,VALID,0,VALID,100,VALID,-0.0679233,VALID,20.4468,VALID,87,VALID,0.56949,
2000-05-29, 01:38:00,VALID,916.941,VALID,0,VALID,100,VALID,-0.0169808,VALID,20.4336,VALID,82,VALID,0.785979,
2000-05-29, 01:39:00,VALID,916.966,VALID,0,VALID,100,VALID,0.0339617,VALID,20.4291,VALID,83,VALID,0.847656,
2000-05-29, 01:40:00,VALID,916.993,VALID,0,VALID,100,VALID,0.0509425,VALID,20.4194,VALID,87,VALID,0.681332,
2000-05-29, 01:41:00,VALID,917.003,VALID,0,VALID,100,VALID,0.0679233,VALID,20.4315,VALID,98,VALID,0.485176,
2000-05-29, 01:42:00,VALID,917.002,VALID,0,VALID,100,VALID,0.0679233,VALID,20.4418,VALID,92,VALID,0.704492,
2000-05-29, 01:43:00,VALID,916.994,VALID,0,VALID,100,VALID,0.0849042,VALID,20.4385,VALID,86,VALID,0.745271,
2000-05-29, 01:44:00,VALID,916.966,VALID,0,VALID,100,VALID,0.0339617,VALID,20.448,VALID,102,VALID,0.686472,
2000-05-29, 01:45:00,VALID,916.951,VALID,0,VALID,100,VALID,0.0509425,VALID,20.4686,VALID,106,VALID,0.287212,
2000-05-29, 01:46:00,VALID,916.925,VALID,0,VALID,100,VALID,0.0679233,VALID,20.4735,VALID,106,VALID,0.0143914,
2000-05-29, 01:47:00,VALID,916.907,VALID,0,VALID,100,VALID,0.0679233,VALID,20.4803,VALID,106,VALID,0,
2000-05-29, 01:48:00,VALID,916.89,VALID,0,VALID,100,VALID,0.0679233,VALID,20.4773,VALID,105,VALID,0.0026727,
2000-05-29, 01:49:00,VALID,916.881,VALID,0,VALID,100,VALID,0.0339617,VALID,20.445,VALID,104,VALID,0.00240385,
2000-05-29, 01:50:00,VALID,916.867,VALID,0,VALID,100,VALID,0.101885,VALID,20.4321,VALID,104,VALID,0,
2000-05-29, 01:51:00,VALID,916.874,VALID,0,VALID,100,VALID,0.0679233,VALID,20.4259,VALID,104,VALID,0,
2000-05-29, 01:52:00,VALID,916.851,VALID,0,VALID,100,VALID,0.0679233,VALID,20.4323,VALID,104,VALID,0.213199,
2000-05-29, 01:53:00,VALID,916.832,VALID,0,VALID,100,VALID,0.0679233,VALID,20.4253,VALID,103,VALID,0.620477,
2000-05-29, 01:54:00,VALID,916.83,VALID,0,VALID,100,VALID,-0.0339617,VALID,20.4304,VALID,97,VALID,0.895559,
2000-05-29, 01:55:00,VALID,916.81,VALID,0,VALID,100,VALID,-0.0339617,VALID,20.414,VALID,93,VALID,0.704975,
2000-05-29, 01:56:00,VALID,916.795,VALID,0,VALID,100,VALID,-0.0509425,VALID,20.4075,VALID,95,VALID,0.932771,
2000-05-29, 01:57:00,VALID,916.776,VALID,0,VALID,100,VALID,-0.0509425,VALID,20.4078,VALID,101,VALID,0.755208,
2000-05-29, 01:58:00,VALID,916.766,VALID,0,VALID,100,VALID,-0.0679233,VALID,20.414,VALID,103,VALID,0.674414,
2000-05-29, 01:59:00,VALID,916.745,VALID,0,VALID,100,VALID,-0.0339617,VALID,20.4207,VALID,103,VALID,0.486225,
2000-05-29, 02:00:00,VALID,916.708,VALID,0,VALID,100,VALID,-0.0339617,VALID,20.4271,VALID,105,VALID,0.0810033,
2000-05-29, 02:01:00,VALID,916.673,VALID,0,VALID,100,VALID,-0.0339617,VALID,20.4304,VALID,105,VALID,0,
2000-05-29, 02:02:00,VALID,916.64,VALID,0,VALID,100,VALID,-0.0169808,VALID,20.4202,VALID,105,VALID,0,
2000-05-29, 02:03:00,VALID,916.609,VALID,0,VALID,100,VALID,-0.0339617,VALID,20.4269,VALID,105,VALID,0,
2000-05-29, 02:04:00,VALID,916.578,VALID,0,VALID,100,VALID,-0.0509425,VALID,20.4043,VALID,105,VALID,0,
2000-05-29, 02:05:00,VALID,916.544,VALID,0,VALID,100,VALID,-0.0339617,VALID,20.4043,VALID,105,VALID,0,
2000-05-29, 02:06:00,VALID,916.533,VALID,0,VALID,100,VALID,-0.0339617,VALID,20.408,VALID,105,VALID,0,
2000-05-29, 02:07:00,VALID,916.514,VALID,0,VALID,100,VALID,-0.0169808,VALID,20.4045,VALID,105,VALID,0,
2000-05-29, 02:08:00,VALID,916.498,VALID,0,VALID,100,VALID,-0.0169808,VALID,20.3973,VALID,105,VALID,0,
2000-05-29, 02:09:00,VALID,916.479,VALID,0,VALID,100,VALID,-0.0169808,VALID,20.3948,VALID,105,VALID,0,
2000-05-29, 02:10:00,VALID,916.461,VALID,0,VALID,100,VALID,-0.0169808,VALID,20.3986,VALID,105,VALID,0.0370066,
2000-05-29, 02:11:00,VALID,916.454,VALID,0,VALID,100,VALID,-0.0339617,VALID,20.3754,VALID,136,VALID,0,
2000-05-29, 02:12:00,VALID,916.446,VALID,0,VALID,100,VALID,-0.0169808,VALID,20.366,VALID,300,VALID,0.4044,
2000-05-29, 02:13:00,VALID,916.442,VALID,0,VALID,100,VALID,-0.0339617,VALID,20.3625,VALID,289,VALID,0.316707,
2000-05-29, 02:14:00,VALID,916.417,VALID,0,VALID,100,VALID,-0.0339617,VALID,20.3657,VALID,292,VALID,0.384961,
2000-05-29, 02:15:00,VALID,916.403,VALID,0,VALID,100,VALID,0,VALID,20.3588,VALID,296,VALID,0.368832,
2000-05-29, 02:16:00,VALID,916.375,VALID,0,VALID,100,VALID,0,VALID,20.3588,VALID,298,VALID,0.119243,
2000-05-29, 02:17:00,VALID,916.357,VALID,0,VALID,100,VALID,0,VALID,20.3553,VALID,300,VALID,0,
2000-05-29, 02:18:00,VALID,916.337,VALID,0,VALID,100,VALID,-0.0169808,VALID,20.3526,VALID,301,VALID,0,
2000-05-29, 02:19:00,VALID,916.323,VALID,0,VALID,100,VALID,0,VALID,20.3493,VALID,305,VALID,0,
2000-05-29, 02:20:00,VALID,916.315,VALID,0,VALID,100,VALID,-0.0169808,VALID,20.3391,VALID,305,VALID,0,
2000-05-29, 02:21:00,VALID,916.321,VALID,0,VALID,100,VALID,0,VALID,20.3488,VALID,305,VALID,0,
2000-05-29, 02:22:00,VALID,916.346,VALID,0,VALID,100,VALID,0,VALID,20.3687,VALID,305,VALID,0,
2000-05-29, 02:23:00,VALID,916.349,VALID,0,VALID,100,VALID,0,VALID,20.3523,VALID,305,VALID,0,
2000-05-29, 02:24:00,VALID,916.385,VALID,0,VALID,100,VALID,-0.0339617,VALID,20.369,VALID,307,VALID,0,
2000-05-29, 02:25:00,VALID,916.393,VALID,0,VALID,100,VALID,-0.0169808,VALID,20.3784,VALID,50,VALID,0,
2000-05-29, 02:26:00,VALID,916.4,VALID,0,VALID,100,VALID,-0.0169808,VALID,20.3916,VALID,88,VALID,0,
2000-05-29, 02:27:00,VALID,916.407,VALID,0,VALID,100,VALID,0,VALID,20.4112,VALID,99,VALID,0,
2000-05-29, 02:28:00,VALID,916.398,VALID,0,VALID,100,VALID,0,VALID,20.4174,VALID,100,VALID,0,
2000-05-29, 02:29:00,VALID,916.388,VALID,0,VALID,100,VALID,0,VALID,20.4172,VALID,105,VALID,0,
2000-05-29, 02:30:00,VALID,916.366,VALID,0,VALID,100,VALID,-0.0169808,VALID,20.4234,VALID,100,VALID,0,
2000-05-29, 02:31:00,VALID,916.322,VALID,0,VALID,100,VALID,0,VALID,20.4271,VALID,105,VALID,0.601151,
2000-05-29, 02:32:00,VALID,916.314,VALID,0,VALID,100,VALID,-0.0169808,VALID,20.4142,VALID,104,VALID,0.728002,
2000-05-29, 02:33:00,VALID,916.286,VALID,0,VALID,100,VALID,0,VALID,20.401,VALID,103,VALID,0.720806,
2000-05-29, 02:34:00,VALID,916.272,VALID,0,VALID,100,VALID,0,VALID,20.3714,VALID,95,VALID,0.968133,
2000-05-29, 02:35:00,VALID,916.289,VALID,0,VALID,100,VALID,-0.0339617,VALID,20.3623,VALID,99,VALID,1.13363,
2000-05-29, 02:36:00,VALID,916.292,VALID,0,VALID,100,VALID,0.0169808,VALID,20.3563,VALID,87,VALID,1.16221,
2000-05-29, 02:37:00,VALID,916.311,VALID,0,VALID,100,VALID,-0.0169808,VALID,20.3232,VALID,94,VALID,1.10837,
2000-05-29, 02:38:00,VALID,916.326,VALID,0,VALID,100,VALID,0,VALID,20.3135,VALID,93,VALID,1.16074,
2000-05-29, 02:39:00,VALID,916.329,VALID,0,VALID,100,VALID,-0.0509425,VALID,20.3124,VALID,89,VALID,0.961349,
2000-05-29, 02:40:00,VALID,916.344,VALID,0,VALID,100,VALID,-0.0339617,VALID,20.2855,VALID,97,VALID,0.781456,
2000-05-29, 02:41:00,VALID,916.333,VALID,0,VALID,100,VALID,-0.0339617,VALID,20.286,VALID,81,VALID,0.733758,
2000-05-29, 02:42:00,VALID,916.331,VALID,0,VALID,100,VALID,-0.0509425,VALID,20.2669,VALID,85,VALID,1.18812,
2000-05-29, 02:43:00,VALID,916.306,VALID,0,VALID,100,VALID,-0.0169808,VALID,20.2505,VALID,93,VALID,1.31928,
2000-05-29, 02:44:00,VALID,916.29,VALID,0,VALID,100,VALID,-0.101885,VALID,20.2308,VALID,89,VALID,1.1692,
2000-05-29, 02:45:00,VALID,916.279,VALID,0,VALID,100,VALID,-0.0679233,VALID,20.234,VALID,96,VALID,1.14523,
2000-05-29, 02:46:00,VALID,916.272,VALID,0,VALID,100,VALID,-0.0509425,VALID,20.2378,VALID,98,VALID,1.23477,
2000-05-29, 02:47:00,VALID,916.269,VALID,0,VALID,100,VALID,0,VALID,20.2537,VALID,87,VALID,0.948602,
2000-05-29, 02:48:00,VALID,916.283,VALID,0,VALID,100,VALID,-0.0849042,VALID,20.2308,VALID,105,VALID,1.33758,
2000-05-29, 02:49:00,VALID,916.275,VALID,0,VALID,100,VALID,-0.0679233,VALID,20.2378,VALID,99,VALID,1.05099,
2000-05-29, 02:50:00,VALID,916.269,VALID,0,VALID,100,VALID,-0.0509425,VALID,20.2335,VALID,97,VALID,0.937706,
2000-05-29, 02:51:00,VALID,916.262,VALID,0,VALID,100,VALID,-0.0679233,VALID,20.2405,VALID,77,VALID,0.895354,
2000-05-29, 02:52:00,VALID,916.25,VALID,0,VALID,100,VALID,-0.0679233,VALID,20.2373,VALID,88,VALID,0.581003,
2000-05-29, 02:53:00,VALID,916.228,VALID,0,VALID,100,VALID,-0.0849042,VALID,20.2437,VALID,75,VALID,0.714343,
2000-05-29, 02:54:00,VALID,916.182,VALID,0,VALID,100,VALID,-0.0169808,VALID,20.2475,VALID,61,VALID,0.679297,
2000-05-29, 02:55:00,VALID,916.139,VALID,0,VALID,100,VALID,-0.0849042,VALID,20.2311,VALID,55,VALID,0.868421,
2000-05-29, 02:56:00,VALID,916.097,VALID,0,VALID,100,VALID,-0.0509425,VALID,20.2313,VALID,16,VALID,0.660567,
2000-05-29, 02:57:00,VALID,916.047,VALID,0,VALID,100,VALID,-0.0849042,VALID,20.2408,VALID,85,VALID,0.702714,
2000-05-29, 02:58:00,VALID,916.012,VALID,0,VALID,100,VALID,-0.0339617,VALID,20.2539,VALID,93,VALID,1.09396,
2000-05-29, 02:59:00,VALID,915.989,VALID,0,VALID,100,VALID,-0.0849042,VALID,20.2505,VALID,65,VALID,0.318668,
2000-05-29, 03:00:00,VALID,915.958,VALID,0,VALID,100,VALID,-0.0679233,VALID,20.2413,VALID,85,VALID,0.566201,
2000-05-29, 03:01:00,VALID,915.962,VALID,0,VALID,100,VALID,-0.0339617,VALID,20.2542,VALID,101,VALID,0.15004,
2000-05-29, 03:02:00,VALID,915.937,VALID,0,VALID,100,VALID,-0.0679233,VALID,20.2572,VALID,99,VALID,0,
2000-05-29, 03:03:00,VALID,915.913,VALID,0,VALID,100,VALID,-0.0509425,VALID,20.2698,VALID,98,VALID,0,
2000-05-29, 03:04:00,VALID,915.909,VALID,0,VALID,100,VALID,-0.0849042,VALID,20.2835,VALID,100,VALID,0,
2000-05-29, 03:05:00,VALID,915.884,VALID,0,VALID,100,VALID,-0.0849042,VALID,20.2795,VALID,100,VALID,0,
2000-05-29, 03:06:00,VALID,915.859,VALID,0,VALID,100,VALID,-0.0679233,VALID,20.283,VALID,100,VALID,0,
2000-05-29, 03:07:00,VALID,915.837,VALID,0,VALID,100,VALID,-0.0339617,VALID,20.3151,VALID,125,VALID,0,
2000-05-29, 03:08:00,VALID,915.825,VALID,0,VALID,100,VALID,-0.0339617,VALID,20.3151,VALID,233,VALID,0,
2000-05-29, 03:09:00,VALID,915.81,VALID,0,VALID,100,VALID,-0.0679233,VALID,20.289,VALID,265,VALID,0,
2000-05-29, 03:10:00,VALID,915.792,VALID,0,VALID,100,VALID,-0.0169808,VALID,20.282,VALID,266,VALID,0,
2000-05-29, 03:11:00,VALID,915.79,VALID,0,VALID,100,VALID,-0.0679233,VALID,20.2989,VALID,196,VALID,0,
2000-05-29, 03:12:00,VALID,915.787,VALID,0,VALID,100,VALID,-0.0679233,VALID,20.3186,VALID,128,VALID,0,
2000-05-29, 03:13:00,VALID,915.773,VALID,0,VALID,100,VALID,-0.0849042,VALID,20.3218,VALID,128,VALID,0,
2000-05-29, 03:14:00,VALID,915.769,VALID,0,VALID,100,VALID,-0.0339617,VALID,20.3148,VALID,122,VALID,0,
2000-05-29, 03:15:00,VALID,915.76,VALID,0,VALID,100,VALID,-0.0169808,VALID,20.3121,VALID,97,VALID,0.637541,
2000-05-29, 03:16:00,VALID,915.758,VALID,0,VALID,100,VALID,-0.0849042,VALID,20.2954,VALID,98,VALID,1.35136,
2000-05-29, 03:17:00,VALID,915.748,VALID,0,VALID,100,VALID,-0.0849042,VALID,20.28,VALID,76,VALID,0.542268,
2000-05-29, 03:18:00,VALID,915.764,VALID,0,VALID,100,VALID,-0.0679233,VALID,20.2375,VALID,68,VALID,0,
2000-05-29, 03:19:00,VALID,915.756,VALID,0,VALID,100,VALID,-0.0339617,VALID,20.2383,VALID,91,VALID,0,
2000-05-29, 03:20:00,VALID,915.75,VALID,0,VALID,100,VALID,-0.0679233,VALID,20.2316,VALID,117,VALID,0,
2000-05-29, 03:21:00,VALID,915.743,VALID,0,VALID,100,VALID,-0.0679233,VALID,20.2445,VALID,126,VALID,0,
2000-05-29, 03:22:00,VALID,915.744,VALID,0,VALID,100,VALID,-0.0849042,VALID,20.2475,VALID,202,VALID,0,
2000-05-29, 03:23:00,VALID,915.746,VALID,0,VALID,100,VALID,-0.0679233,VALID,20.2448,VALID,209,VALID,0,
2000-05-29, 03:24:00,VALID,915.753,VALID,0,VALID,100,VALID,0.0339617,VALID,20.2459,VALID,104,VALID,0.0703125,
2000-05-29, 03:25:00,VALID,915.775,VALID,0,VALID,100,VALID,0.0339617,VALID,20.2618,VALID,134,VALID,0,
2000-05-29, 03:26:00,VALID,915.781,VALID,0,VALID,100,VALID,0.0339617,VALID,20.2556,VALID,114,VALID,0,
2000-05-29, 03:27:00,VALID,915.795,VALID,0,VALID,100,VALID,0.0509425,VALID,20.2328,VALID,112,VALID,0,
2000-05-29, 03:28:00,VALID,915.804,VALID,0,VALID,100,VALID,0.0339617,VALID,20.2357,VALID,101,VALID,0.901727,
2000-05-29, 03:29:00,VALID,915.805,VALID,0,VALID,100,VALID,0.0169808,VALID,20.2432,VALID,98,VALID,0.898849,
2000-05-29, 03:30:00,VALID,915.805,VALID,0,VALID,100,VALID,0.0169808,VALID,20.233,VALID,103,VALID,1.09211,
2000-05-29, 03:31:00,VALID,915.805,VALID,0,VALID,100,VALID,0.0509425,VALID,20.2295,VALID,105,VALID,0.75185,
2000-05-29, 03:32:00,VALID,915.801,VALID,0,VALID,100,VALID,0.0849042,VALID,20.2099,VALID,99,VALID,1.26583,
2000-05-29, 03:33:00,VALID,915.801,VALID,0,VALID,100,VALID,0.0679233,VALID,20.1913,VALID,102,VALID,0.948718,
2000-05-29, 03:34:00,VALID,915.809,VALID,0,VALID,100,VALID,0.0509425,VALID,20.1749,VALID,95,VALID,1.05547,
2000-05-29, 03:35:00,VALID,915.811,VALID,0,VALID,100,VALID,0.0169808,VALID,20.145,VALID,115,VALID,0.616982,
2000-05-29, 03:36:00,VALID,915.836,VALID,0,VALID,100,VALID,0.0169808,VALID,20.1523,VALID,108,VALID,0.518503,
2000-05-29, 03:37:00,VALID,915.868,VALID,0,VALID,100,VALID,0.0339617,VALID,20.1525,VALID,121,VALID,0.311061,
2000-05-29, 03:38:00,VALID,915.871,VALID,0,VALID,100,VALID,0.0509425,VALID,20.1391,VALID,100,VALID,0.203536,
2000-05-29, 03:39:00,VALID,915.883,VALID,0,VALID,100,VALID,-0.0169808,VALID,20.1396,VALID,77,VALID,0,
2000-05-29, 03:40:00,VALID,915.894,VALID,0,VALID,100,VALID,0,VALID,20.1199,VALID,96,VALID,0,
2000-05-29, 03:41:00,VALID,915.9,VALID,0,VALID,100,VALID,0,VALID,20.1103,VALID,97,VALID,0,
2000-05-29, 03:42:00,VALID,915.916,VALID,0,VALID,100,VALID,0,VALID,20.0938,VALID,1,VALID,0.06875,
2000-05-29, 03:43:00,VALID,915.929,VALID,0,VALID,100,VALID,0,VALID,20.0879,VALID,164,VALID,0,
2000-05-29, 03:44:00,VALID,915.924,VALID,0,VALID,100,VALID,0,VALID,20.0782,VALID,105,VALID,0,
2000-05-29, 03:45:00,VALID,915.904,VALID,0,VALID,100,VALID,0,VALID,20.0844,VALID,108,VALID,0,
2000-05-29, 03:46:00,VALID,915.905,VALID,0,VALID,100,VALID,-0.0169808,VALID,20.0812,VALID,107,VALID,0,
2000-05-29, 03:47:00,VALID,915.879,VALID,0,VALID,100,VALID,-0.0169808,VALID,20.0817,VALID,101,VALID,0,